| time (UTC) | temp F | wind direction | speed MPH | gust MPH | rain 1hr in | rain 24hr in | rain mn in | humidity % | barometer mb |
| 20260508051904 | 52 | 172 | 0.0 | 0.0 | 0.00 | 0.00 | 0.00 | ||
| 20260508050405 | 52 | 172 | 0.0 | 0.0 | 0.00 | 0.00 | 0.00 | ||
| 20260508044906 | 52 | 194 | 0.0 | 0.0 | 0.00 | 0.00 | 0.00 | ||
| 20260508043408 | 50 | 194 | 0.0 | 0.0 | 0.00 | 0.00 | 0.00 | ||
| 20260508041909 | 51 | 194 | 0.0 | 0.0 | 0.00 | 0.00 | 0.00 | ||
| 20260508040410 | 55 | 194 | 0.0 | 0.0 | 0.00 | 0.00 | 0.00 | ||
| 20260508034911 | 54 | 194 | 0.0 | 0.0 | 0.00 | 0.00 | 0.00 | ||
| 20260508033412 | 52 | 194 | 0.0 | 0.0 | 0.00 | 0.00 | 0.00 | ||
| 20260508031913 | 54 | 194 | 0.0 | 0.0 | 0.00 | 0.00 | 0.00 | ||
| 20260508030414 | 55 | 194 | 0.0 | 0.0 | 0.00 | 0.00 | 0.00 | ||
| 20260508024915 | 56 | 194 | 0.0 | 0.0 | 0.00 | 0.00 | 0.00 | ||
| 20260508023416 | 58 | 194 | 0.0 | 0.0 | 0.00 | 0.00 | 0.00 | ||
| 20260508020417 | 59 | 194 | 0.0 | 0.0 | 0.00 | 0.00 | 0.00 | ||
| 20260508014918 | 62 | 194 | 0.0 | 0.0 | 0.00 | 0.00 | 0.00 | ||
| 20260508013418 | 67 | 194 | 0.0 | 0.0 | 0.00 | 0.00 | 0.00 | ||
| 20260508011919 | 71 | 207 | 0.0 | 2.0 | 0.00 | 0.00 | 0.00 | ||
| 20260508010419 | 71 | 245 | 1.0 | 3.0 | 0.00 | 0.00 | 0.00 | ||
| 20260508004919 | 72 | 238 | 4.0 | 6.0 | 0.00 | 0.00 | 0.00 | ||
| 20260508001919 | 75 | 233 | 2.0 | 3.0 | 0.00 | 0.00 | 0.00 | ||
| 20260508000419 | 75 | 267 | 2.0 | 1.0 | 0.00 | 0.00 | 0.00 | ||
| 20260507234919 | 74 | 218 | 5.0 | 0.0 | 0.00 | 0.00 | 0.00 | ||
| 20260507233419 | 76 | 267 | 3.0 | 2.0 | 0.00 | 0.00 | 0.00 | ||
| 20260507231920 | 76 | 238 | 2.0 | 2.0 | 0.00 | 0.00 | 0.00 | ||
| 20260507230420 | 76 | 264 | 4.0 | 4.0 | 0.00 | 0.00 | 0.00 | ||
| 20260507224920 | 77 | 208 | 6.0 | 2.0 | 0.00 | 0.00 | 0.00 | ||
| 20260507223421 | 76 | 253 | 5.0 | 4.0 | 0.00 | 0.00 | 0.00 | ||
| 20260507221921 | 77 | 248 | 2.0 | 9.0 | 0.00 | 0.00 | 0.00 | ||
| 20260507220422 | 76 | 231 | 6.0 | 5.0 | 0.00 | 0.00 | 0.00 | ||
| 20260507214922 | 76 | 321 | 6.0 | 4.0 | 0.00 | 0.00 | 0.00 | ||
| 20260507213423 | 76 | 236 | 6.0 | 5.0 | 0.00 | 0.00 | 0.00 | ||
| 20260507211922 | 75 | 187 | 7.0 | 4.0 | 0.00 | 0.00 | 0.00 | ||
| 20260507210423 | 73 | 243 | 5.0 | 6.0 | 0.00 | 0.00 | 0.00 | ||
| 20260507204923 | 74 | 269 | 5.0 | 1.0 | 0.00 | 0.00 | 0.00 | ||
| 20260507201924 | 73 | 245 | 7.0 | 6.0 | 0.00 | 0.00 | 0.00 | ||
| 20260507200424 | 73 | 228 | 5.0 | 3.0 | 0.00 | 0.00 | 0.00 | ||
| 20260507194925 | 73 | 245 | 3.0 | 5.0 | 0.00 | 0.00 | 0.00 | ||
| 20260507193425 | 71 | 246 | 2.0 | 0.0 | 0.00 | 0.00 | 0.00 | ||
| 20260507190426 | 70 | 298 | 9.0 | 2.0 | 0.00 | 0.00 | 0.00 | ||
| 20260507184927 | 69 | 250 | 1.0 | 1.0 | 0.00 | 0.00 | 0.00 | ||
| 20260507183427 | 69 | 294 | 2.0 | 1.0 | 0.00 | 0.00 | 0.00 | ||
| 20260507181928 | 67 | 232 | 0.0 | 0.0 | 0.00 | 0.00 | 0.00 | ||
| 20260507180428 | 67 | 191 | 2.0 | 6.0 | 0.00 | 0.00 | 0.00 | ||
| 20260507174929 | 68 | 210 | 3.0 | 2.0 | 0.00 | 0.00 | 0.00 | ||
| 20260507173430 | 66 | 245 | 0.0 | 0.0 | 0.00 | 0.00 | 0.00 | ||
| 20260507171930 | 66 | 232 | 1.0 | 0.0 | 0.00 | 0.00 | 0.00 | ||
| 20260507170431 | 65 | 295 | 4.0 | 1.0 | 0.00 | 0.00 | 0.00 | ||
| 20260507164932 | 66 | 222 | 0.0 | 0.0 | 0.00 | 0.00 | 0.00 | ||
| 20260507163433 | 67 | 188 | 2.0 | 3.0 | 0.00 | 0.00 | 0.00 | ||
| 20260507161934 | 66 | 153 | 0.0 | 0.0 | 0.00 | 0.00 | 0.00 | ||
| 20260507160435 | 65 | 107 | 0.0 | 0.0 | 0.00 | 0.00 | 0.00 | ||
| 20260507154936 | 65 | 6 | 0.0 | 0.0 | 0.00 | 0.00 | 0.00 | ||
| 20260507151938 | 63 | 75 | 0.0 | 0.0 | 0.00 | 0.00 | 0.00 | ||
| 20260507150439 | 62 | 101 | 0.0 | 0.0 | 0.00 | 0.00 | 0.00 | ||
| 20260507144941 | 59 | 72 | 1.0 | 2.0 | 0.00 | 0.00 | 0.00 | ||
| 20260507143442 | 56 | 108 | 2.0 | 2.0 | 0.00 | 0.00 | 0.00 | ||
| 20260507141943 | 54 | 68 | 4.0 | 2.0 | 0.00 | 0.00 | 0.00 | ||
| 20260507140445 | 53 | 60 | 3.0 | 2.0 | 0.00 | 0.00 | 0.00 | ||
| 20260507134946 | 51 | 101 | 3.0 | 4.0 | 0.00 | 0.00 | 0.00 | ||
| 20260507133448 | 49 | 103 | 4.0 | 3.0 | 0.00 | 0.00 | 0.00 | ||
| 20260507131949 | 48 | 139 | 3.0 | 1.0 | 0.00 | 0.00 | 0.00 | ||
| 20260507130450 | 46 | 114 | 4.0 | 6.0 | 0.00 | 0.00 | 0.00 | ||
| 20260507124955 | 44 | 101 | 4.0 | 5.0 | 0.00 | 0.00 | 0.00 | ||
| 20260507123454 | 41 | 100 | 4.0 | 3.0 | 0.00 | 0.00 | 0.00 | ||
| 20260507120456 | 38 | 113 | 5.0 | 2.0 | 0.00 | 0.00 | 0.00 | ||
| 20260507114958 | 39 | 128 | 4.0 | 4.0 | 0.00 | 0.00 | 0.00 | ||
| 20260507112001 | 39 | 108 | 4.0 | 5.0 | 0.00 | 0.00 | 0.00 | ||
| 20260507110503 | 38 | 125 | 2.0 | 2.0 | 0.00 | 0.00 | 0.00 | ||
| 20260507105004 | 39 | 128 | 2.0 | 2.0 | 0.00 | 0.00 | 0.00 | ||
| 20260507103506 | 39 | 59 | 5.0 | 6.0 | 0.00 | 0.00 | 0.00 | ||
| 20260507102007 | 39 | 118 | 2.0 | 3.0 | 0.00 | 0.00 | 0.00 | ||
| 20260507100509 | 38 | 111 | 4.0 | 4.0 | 0.00 | 0.00 | 0.00 | ||
| 20260507095010 | 38 | 93 | 3.0 | 3.0 | 0.00 | 0.00 | 0.00 | ||
| 20260507093512 | 38 | 118 | 3.0 | 3.0 | 0.00 | 0.00 | 0.00 | ||
| 20260507092013 | 38 | 131 | 4.0 | 3.0 | 0.00 | 0.00 | 0.00 | ||
| 20260507090515 | 39 | 124 | 4.0 | 4.0 | 0.00 | 0.00 | 0.00 | ||
| 20260507085017 | 39 | 111 | 6.0 | 5.0 | 0.00 | 0.00 | 0.00 | ||
| 20260507083519 | 38 | 111 | 5.0 | 3.0 | 0.00 | 0.00 | 0.00 | ||
| 20260507082019 | 39 | 110 | 6.0 | 5.0 | 0.00 | 0.00 | 0.00 | ||
| 20260507075022 | 39 | 86 | 4.0 | 4.0 | 0.00 | 0.00 | 0.00 | ||
| 20260507073523 | 40 | 70 | 4.0 | 3.0 | 0.00 | 0.00 | 0.00 | ||
| 20260507072024 | 40 | 80 | 4.0 | 7.0 | 0.00 | 0.00 | 0.00 | ||
| 20260507070526 | 41 | 136 | 4.0 | 2.0 | 0.00 | 0.00 | 0.00 | ||
| 20260507065027 | 40 | 118 | 3.0 | 3.0 | 0.00 | 0.00 | 0.00 | ||
| 20260507063528 | 41 | 82 | 4.0 | 4.0 | 0.00 | 0.00 | 0.00 | ||
| 20260507062029 | 41 | 86 | 5.0 | 3.0 | 0.00 | 0.00 | 0.00 | ||
| 20260507060530 | 43 | 66 | 8.0 | 7.0 | 0.00 | 0.00 | 0.00 | ||
| 20260507055031 | 43 | 76 | 6.0 | 5.0 | 0.00 | 0.00 | 0.00 | ||
| 20260507053532 | 44 | 108 | 5.0 | 5.0 | 0.00 | 0.00 | 0.00 |